SCP
0 0 0 0 0 0 0 0 0 0 0 0 0 0 0 0 0 0 0 0 0 0
0 0 0 0 0 0 0 0 0 0 0 0 0 0 0 0 0 0 0 0 0 0
0 0 0 0 0 0 0 0 0 0 0 0 0 0 0 0 0 0 0 0 0 0
0 0 0 0 0 0 0 0 0 0 0 0 0 0 0 0 0 0 0 0 0 0
0 0 0 0 0 0 0 0 0 0 0 0 0 0 0 0 0 0 0 0 0 0
-0 -0 -0 0 0 0 0 0 0 0 0 0 0 0 0 0 0 0 0 0 0 0
-0 -0 -0 -0 -0 -0 -0 -0 0 0 0 0 0 0 0 0 0 0 0 0 0 0
0 0 -0 -0 -0 -0 -0 -0 -0 -0 0 0 0 0 0 0 0 0 0 0 0 0
0 0 0 0 0 0 -0 -0 -0 -0 -0 -0 0 0 0 0 0 0 0 0 0 0
-0 0 0 0 0 0 0 0 0 -0 -0 0 0 0 0 0 0 0 0 0 0 0
-0 -0 0 0 0 0 0 0 0 0 0 0 0 0 0 0 0 0 0 0 0 0
0 0 0 0 0 0 0 0 0 0 0 0 0 0 0 0 0 0 0 0 0 0
0 0 0 0 0 0 0 0 0 0 0 0 0 0 0 0 0 0 0 0 0 0
0 0 0 0 0 0 0 0 0 0 0 0 0 0 0 0 0 0 0 0 0 0
Wind_Speed_500mb
29 32 36 36 32 24 20 22 28 31 33 37 37 42 55 73 80 87 92 94 100 101
32 33 35 35 35 34 28 27 24 26 33 35 36 38 43 54 69 80 86 90 93 101
40 40 39 36 37 40 42 36 30 29 28 29 35 36 39 47 53 65 76 83 87 92
40 43 42 42 42 43 46 48 46 40 35 31 31 30 38 44 48 55 63 69 78 86
50 46 45 46 48 48 49 50 54 52 48 43 37 36 34 37 43 52 59 63 70 78
57 60 61 60 58 57 56 55 56 59 57 56 50 45 46 48 46 46 51 58 65 72
60 66 71 74 75 73 72 71 68 64 66 65 59 57 54 52 54 63 60 55 59 66
64 68 72 75 79 83 84 84 83 83 78 74 74 67 62 60 62 61 62 70 67 65
70 69 71 73 76 80 86 91 93 93 93 94 88 81 78 76 73 71 72 71 68 74
74 79 83 86 91 96 98 101 102 103 106 108 107 102 96 92 92 91 86 81 80 74
80 86 92 96 102 107 108 113 116 117 116 117 117 115 113 108 105 105 104 98 89 85
85 93 98 102 108 111 101 104 109 117 124 125 128 122 117 97 98 110 115 112 105 97
99 99 102 104 108 111 108 112 107 110 105 109 130 133 127 97 88 99 110 117 116 110
102 102 102 105 105 105 103 100 104 104 109 104 105 122 110 102 90 91 94 95 103 112
Wind_Direction_500mb
27 32 32 26 20 6 333 300 283 278 283 287 278 267 257 256 255 256 255 252 251 250
21 18 20 17 11 7 6 1 336 301 283 277 278 277 269 260 256 257 258 256 253 252
18 16 15 8 3 359 355 355 352 350 338 311 293 278 271 267 263 259 259 259 258 255
4 3 358 356 355 352 349 348 346 343 341 341 334 310 288 276 269 264 264 263 261 260
353 349 345 346 345 342 337 337 336 336 337 334 323 318 316 301 285 274 269 266 265 264
341 337 335 333 332 330 328 327 326 324 325 325 326 324 315 302 296 288 281 275 265 264
331 329 326 325 323 321 319 318 315 315 315 314 313 313 315 313 308 294 283 278 274 269
322 319 317 316 316 315 315 313 312 311 307 304 304 304 303 302 303 302 299 288 279 274
318 315 314 313 310 309 308 308 308 306 304 303 300 297 297 298 297 296 294 293 290 283
317 315 313 311 308 305 303 301 299 297 297 296 295 295 294 292 292 292 291 290 289 288
314 311 309 306 303 302 302 300 297 294 292 290 288 288 288 287 286 285 285 284 284 285
308 305 303 301 301 300 298 295 293 292 292 289 286 285 285 285 280 279 278 279 280 280
308 306 304 303 301 299 295 292 289 287 284 284 285 284 283 282 279 276 276 275 275 274
312 311 310 309 307 305 302 298 294 290 288 284 282 285 285 283 280 275 274 269 270 271
Wind_Speed_850mb
29 32 36 36 32 24 20 22 28 31 33 37 37 42 55 73 80 87 92 94 100 101
32 33 35 35 35 34 28 27 24 26 33 35 36 38 43 54 69 80 86 90 93 101
40 40 39 36 37 40 42 36 30 29 28 29 35 36 39 47 53 65 76 83 87 92
40 43 42 42 42 43 46 48 46 40 35 31 31 30 38 44 48 55 63 69 78 86
50 46 45 46 48 48 49 50 54 52 48 43 37 36 34 37 43 52 59 63 70 78
57 60 61 60 58 57 56 55 56 59 57 56 50 45 46 48 46 46 51 58 65 72
60 66 71 74 75 73 72 71 68 64 66 65 59 57 54 52 54 63 60 55 59 66
64 68 72 75 79 83 84 84 83 83 78 74 74 67 62 60 62 61 62 70 67 65
70 69 71 73 76 80 86 91 93 93 93 94 88 81 78 76 73 71 72 71 68 74
74 79 83 86 91 96 98 101 102 103 106 108 107 102 96 92 92 91 86 81 80 74
80 86 92 96 102 107 108 113 116 117 116 117 117 115 113 108 105 105 104 98 89 85
85 93 98 102 108 111 101 104 109 117 124 125 128 122 117 97 98 110 115 112 105 97
99 99 102 104 108 111 108 112 107 110 105 109 130 133 127 97 88 99 110 117 116 110
102 102 102 105 105 105 103 100 104 104 109 104 105 122 110 102 90 91 94 95 103 112
Wind_Direction_850mb
27 32 32 26 20 6 333 300 283 278 283 287 278 267 257 256 255 256 255 252 251 250
21 18 20 17 11 7 6 1 336 301 283 277 278 277 269 260 256 257 258 256 253 252
18 16 15 8 3 359 355 355 352 350 338 311 293 278 271 267 263 259 259 259 258 255
4 3 358 356 355 352 349 348 346 343 341 341 334 310 288 276 269 264 264 263 261 260
353 349 345 346 345 342 337 337 336 336 337 334 323 318 316 301 285 274 269 266 265 264
341 337 335 333 332 330 328 327 326 324 325 325 326 324 315 302 296 288 281 275 265 264
331 329 326 325 323 321 319 318 315 315 315 314 313 313 315 313 308 294 283 278 274 269
322 319 317 316 316 315 315 313 312 311 307 304 304 304 303 302 303 302 299 288 279 274
318 315 314 313 310 309 308 308 308 306 304 303 300 297 297 298 297 296 294 293 290 283
317 315 313 311 308 305 303 301 299 297 297 296 295 295 294 292 292 292 291 290 289 288
314 311 309 306 303 302 302 300 297 294 292 290 288 288 288 287 286 285 285 284 284 285
308 305 303 301 301 300 298 295 293 292 292 289 286 285 285 285 280 279 278 279 280 280
308 306 304 303 301 299 295 292 289 287 284 284 285 284 283 282 279 276 276 275 275 274
312 311 310 309 307 305 302 298 294 290 288 284 282 285 285 283 280 275 274 269 270 271